SCP
0 0 -0 0 0 0 0 0 0 0 0 0 0 0 0 0 0 0 0 0 0 0 0 0 0 0 0 0 0 0 0 0 0 0 0 0 0 0 0 0 0 -0 -0
0 0 0 0 0 0 0 0 0 0 0 0 0 0 0 0 0 0 0 0 0 0 0 0 0 0 0 0 0 0 0 0 0 0 0 0 0 0 0 0 0 -0 -0
0 0 0 0 0 0 0 0 0 0 0 0 0 0 0 0 0 0 0 0 0 0 0 0 0 0 0 0 0 0 0 0 0 0 0 0 0 0 0 0 0 0 -0
0 0 0 0 0 0 0 0 0 0 0 0 0 0 0 0 0 0 0 0 0 0 0 0 0 0 0 0 0 0 0 0 0 0 0 0 0 0 0 0 0 0 -0
0 0 0 0 0 0 0 0 0 0 0 0 0 0 0 0 0 0 0 0 0 0 0 0 0 0 0 0 0 0 0 0 0 0 0 0 0 0 0 0 0 0 0
0 0 0 0 0 0 0 0 0 0 0 0 0 0 0 0 0 0 0 0 0 0 0 0 0 0 0 0 0 0 0 0 0 0 0 0 0 0 0 0 0 0 0
0 0 0 0 0 0 0 0 0 0 0 0 0 0 0 0 0 0 0 0 0 0 0 0 0 0 0 0 0 0 0 0 0 0 0 0 0 0 0 0 0 0 0
0 0 0 0 0 0 0 0 0 0 0 0 0 0 0 0 0 0 0 0 0 0 0 0 0 0 0 0 0 0 0 0 0 0 0 0 0 0 0 0 0 0 0
0 0 0 0 0 0 0 0 0 0 0 0 0 0 0 0 0 0 0 0 0 0 0 0 0 0 0 0 0 0 0 0 0 0 0 0 0 0 0 0 0 0 0
0 0 0 0 0 0 0 0 0 0 0 0 0 0 0 0 0 0 0 0 0 0 0 0 0 0 0 0 0 0 0 0 0 0 0 0 0 0 0 0 0 0 0
0 0 0 0 0 0 0 0 0 0 0 0 0 0 0 0 0 0 0 0 0 0 0 0 0 0 0 0 0 0 0 0 0 0 0 0 0 0 0 0 0 0 0
0 0 0 0 0 0 0 0 0 0 0 0 0 0 0 0 0 0 0 0 0 0 0 0 0 0 0 0 0 0 0 0 0 0 0 0 0 0 0 0 0 0 0
0 0 0 0 0 0 0 0 0 0 0 0 0 0 0 0 0 0 0 0 0 0 0 0 0 0 0 0 0 0 0 0 0 0 0 0 0 0 0 0 0 0 0
0 0 0 0 0 0 0 0 0 0 0 0 0 0 0 0 0 0 0 0 0 0 0 0 0 0 0 0 0 0 0 0 0 0 0 0 0 0 0 0 0 0 0
0 0 0 0 0 0 0 0 0 0 0 0 0 0 0 0 0 0 0 0 0 0 0 0 0 0 0 0 0 0 0 0 0 0 0 0 0 0 0 0 0 0 0
0 0 0 0 0 0 0 0 0 0 0 0 0 0 0 0 -0 0 0 0 0 0 0 0 0 0 0 0 0 0 0 0 0 0 0 0 0 0 0 0 0 0 0
0 0 0 0 0 0 0 0 0 0 -0 -0 -0 0 0 0 -0 -0 -0 0 0 0 0 0 0 0 0 0 0 0 0 0 0 0 0 0 0 0 0 0 0 0 0
0 0 0 0 0 0 0 0 0 0 0 0 0 0 0 0 -0 -0 -0 0 0 0 0 0 0 0 0 0 0 0 0 0 0 0 0 0 0 0 0 0 0 0 0
0 0 0 -0 0 0 0 -0 -0 0 0 0 0 0 0 0 0 0 0 0 0 0 0 0 0 0 0 0 0 0 0 0 0 0 0 0 0 0 0 0 0 0 0
-0 -0 -0 -0 -0 0 0 0 0 0 0 0 0 0 0 0 0 0 0 0 0 0 0 0 0 0 0 0 0 0 0 0 0 0 0 0 0 0 0 0 0 0 0
-0 0 -0 0 0 0 0 0 0 0 0 0 0 0 0 0 0 0 0 0 0 0 0 0 0 0 0 0 0 0 0 0 0 0 0 0 0 0 0 0 0 0 0
-0 -0 -0 -0 0 0 0 0 0 0 0 0 0 0 0 0 0 0 0 0 0 0 0 0 0 0 0 0 0 0 0 0 0 0 0 0 0 0 0 0 0 0 0
-0 -0 -0 -0 -0 0 0 0 0 0 0 0 0 0 0 0 0 0 0 0 0 0 0 0 0 0 0 0 0 0 0 0 0 0 0 0 0 0 0 0 0 0 0
-0 -0 0 0 0 0 0 0 0 0 0 0 0 0 0 0 0 0 0 0 0 0 0 0 0 -0 -0 -0 0 0 0 0 0 0 0 0 0 0 0 0 0 0 0
0 0 0 0 0 0 0 0 0 0 0 0 0 0 0 0 0 0 0 0 0 0 0 0 0 0 0 0 0 0 0 0 0 0 0 0 0 0 0 0 0 0 0
0 0 0 0 0 0 0 0 0 0 0 0 0 0 0 0 0 0 0 0 0 0 0 0 0 0 0 0 0 0 0 0 0 0 0 0 0 0 0 0 0 0 0
Wind_Speed_500mb
22 35 59 68 71 66 60 57 55 52 50 47 44 45 47 44 44 38 32 31 30 31 30 31 33 31 27 23 25 26 26 25 25 26 27 27 28 28 29 31 28 26 29
22 3 20 38 62 68 65 59 57 57 54 53 47 44 38 40 43 41 40 37 36 35 35 34 34 35 34 31 30 30 29 30 27 25 21 14 25 31 33 36 31 30 34
54 31 11 14 31 51 66 61 54 56 56 55 53 50 47 45 44 47 47 42 39 38 39 39 37 37 39 37 35 34 34 32 30 28 22 11 10 13 33 38 38 33 36
67 53 40 16 19 40 55 64 62 55 54 56 55 54 49 44 38 37 39 40 41 41 41 41 42 42 41 42 40 39 39 38 35 34 33 37 23 8 9 29 39 39 40
72 71 63 54 20 17 34 51 59 60 58 54 51 53 53 47 44 39 37 37 41 43 43 44 45 46 46 45 44 45 45 43 43 42 40 37 43 44 30 23 21 42 43
66 69 69 64 61 18 14 29 41 52 55 57 55 47 44 44 46 45 42 39 38 40 44 44 46 47 49 49 48 48 50 50 49 47 47 47 46 38 43 46 40 35 36
66 68 72 75 70 64 37 5 12 25 40 49 54 58 56 50 47 46 46 45 42 42 41 42 46 48 47 48 50 54 56 57 58 54 54 52 52 52 51 45 43 46 47
61 65 67 68 67 63 58 48 29 9 15 29 39 49 56 62 65 61 54 52 50 46 41 43 46 47 49 51 52 55 60 62 64 64 61 58 57 57 57 57 54 51 51
63 63 60 63 64 61 58 52 43 36 28 22 17 25 38 49 57 60 65 68 62 55 50 49 51 51 52 53 54 59 61 63 67 70 69 68 65 62 61 61 61 58 59
56 60 61 60 58 58 55 47 44 44 39 29 27 27 24 31 37 42 49 55 61 62 58 53 53 53 55 55 57 61 62 64 67 69 73 74 73 70 67 68 66 66 67
49 52 54 56 55 53 52 50 44 39 35 33 33 30 29 28 22 30 40 44 48 49 52 55 57 57 56 56 61 64 67 68 69 71 74 77 76 77 76 74 74 75 74
41 45 50 52 56 54 52 51 46 42 39 33 30 30 31 32 29 27 26 30 37 40 45 49 53 55 55 55 60 65 69 73 76 74 76 78 79 82 83 82 81 81 83
40 45 48 54 57 54 51 51 48 45 41 36 33 32 31 33 36 36 32 30 30 29 34 42 48 50 53 56 55 57 62 69 74 77 80 79 80 82 82 86 87 86 88
39 46 53 57 55 51 52 54 51 48 45 43 40 41 42 40 39 38 36 32 31 31 31 34 39 44 49 52 55 59 60 63 67 71 77 80 84 83 81 83 85 85 91
39 47 54 57 55 55 59 56 52 51 50 48 47 47 47 46 45 45 42 38 35 34 32 34 36 39 42 46 51 55 59 62 64 68 72 74 77 80 80 82 84 83 87
41 49 50 54 58 58 57 53 55 55 52 51 52 50 49 49 50 52 51 48 45 41 38 37 37 36 37 38 43 49 57 61 65 68 70 72 72 74 74 77 79 84 87
40 39 46 49 49 51 53 53 53 54 57 57 56 54 53 55 57 57 57 55 54 51 48 45 42 40 38 38 39 42 50 59 66 69 69 71 72 72 75 74 77 80 85
41 43 47 50 52 52 53 50 51 56 59 59 59 55 56 60 62 62 61 60 59 58 57 54 51 49 44 42 42 44 48 52 58 66 70 72 71 72 72 75 81 86 87
41 45 48 50 52 56 57 57 56 54 58 60 60 57 59 66 63 64 63 64 64 63 62 60 59 58 55 50 48 47 50 51 52 53 59 65 70 69 68 73 81 87 94
46 51 57 59 58 52 52 57 61 63 60 60 62 62 63 65 67 69 67 67 66 67 67 65 61 59 60 54 51 47 50 55 54 51 50 51 56 60 63 70 77 88 90
61 62 60 59 60 61 61 65 65 60 59 62 65 65 64 65 66 67 69 72 75 76 72 71 68 64 61 58 54 50 51 52 56 57 56 51 50 51 52 56 66 80 73
63 61 62 59 55 56 52 51 62 68 70 73 79 81 85 84 82 82 81 80 82 86 82 78 77 73 68 65 61 56 52 52 54 58 59 57 53 51 51 55 62 63 62
55 52 52 58 54 49 49 53 56 60 63 64 67 71 70 70 74 75 78 77 80 82 79 79 81 83 80 81 77 70 66 68 69 67 65 64 64 60 59 59 61 63 68
50 50 49 52 54 53 53 54 55 50 52 55 59 60 65 64 63 65 61 63 63 64 68 69 74 76 74 78 85 91 88 85 79 73 72 76 76 72 69 65 62 63 66
44 44 43 47 45 51 52 52 58 64 64 59 61 62 60 57 60 64 65 63 62 59 64 69 69 73 80 81 87 91 87 81 76 75 77 77 76 74 73 70 64 60 60
41 43 38 42 50 49 52 57 56 53 52 53 55 55 53 54 53 56 64 59 61 66 67 61 58 64 65 65 68 75 75 71 66 64 73 77 74 71 67 65 64 60 56
Wind_Direction_500mb
271 256 250 248 245 243 241 240 239 240 237 237 238 242 248 253 254 254 252 250 249 251 252 245 240 241 241 242 243 244 245 248 253 261 261 256 248 236 224 214 212 215 212
50 308 256 248 247 247 241 240 241 241 242 241 245 249 263 267 267 263 257 255 252 252 253 250 247 248 249 246 245 246 249 252 255 259 268 279 251 239 231 225 223 224 221
43 45 25 280 251 242 239 241 247 245 244 243 244 247 251 258 259 258 256 255 258 258 258 255 251 250 252 250 249 250 252 256 256 254 245 258 256 269 239 236 231 233 229
48 48 44 11 254 242 240 242 246 248 246 244 247 250 258 267 283 288 280 270 266 264 262 259 254 252 253 254 251 252 252 254 253 253 247 243 261 297 281 242 234 238 236
50 49 47 39 3 251 240 245 247 248 248 248 253 255 259 271 278 283 283 276 269 265 263 261 257 254 254 255 255 252 251 254 255 252 253 253 255 256 266 277 257 244 244
51 52 52 49 44 36 235 236 247 248 248 250 253 263 273 282 282 286 290 290 283 273 267 265 263 260 258 257 259 259 256 254 254 253 252 251 251 257 259 263 268 272 258
52 50 49 49 49 49 47 23 254 256 256 257 258 259 264 275 286 290 293 294 292 285 279 275 272 269 268 264 261 259 257 255 255 254 255 255 255 256 257 261 265 266 267
54 51 51 51 52 53 56 55 52 6 279 269 270 271 271 271 270 274 287 292 294 294 289 282 279 276 273 270 266 263 260 257 256 255 254 255 254 255 258 259 261 266 268
53 50 49 49 49 51 53 55 59 60 54 41 359 302 283 277 277 277 277 277 282 291 291 286 282 279 276 272 268 264 261 261 259 258 257 255 255 253 255 256 256 258 263
51 49 47 47 46 46 49 54 55 56 56 51 35 16 332 297 287 284 284 283 281 280 284 284 282 279 275 271 269 268 264 261 258 258 258 257 255 255 253 254 255 255 256
48 43 42 41 38 39 40 40 42 42 43 39 34 27 22 13 335 293 284 283 282 281 278 278 279 279 276 273 269 265 265 263 262 259 258 257 258 257 255 254 254 255 253
45 36 30 26 25 26 27 26 28 28 28 24 19 15 18 18 7 354 340 307 287 282 282 278 277 276 274 275 272 269 264 262 261 261 263 261 260 258 258 257 255 255 257
31 23 18 15 12 13 14 14 12 10 9 8 6 0 357 2 5 3 352 336 326 311 287 279 278 279 276 273 273 276 272 267 263 262 262 262 264 264 262 261 260 258 258
16 4 1 0 2 4 1 359 360 359 356 354 352 350 348 346 347 348 349 347 341 329 314 300 292 283 277 275 274 274 274 273 268 265 264 264 264 265 265 265 264 264 263
4 358 353 350 349 349 349 350 349 348 347 345 342 342 339 335 334 334 335 337 336 331 326 322 309 298 290 284 279 275 275 275 276 274 271 267 265 267 266 267 267 267 267
347 345 343 340 339 340 340 339 339 341 340 336 337 336 333 330 330 330 329 328 326 324 324 322 319 315 310 300 290 286 279 275 276 275 275 274 271 270 268 266 266 267 265
342 342 340 339 338 335 337 334 332 330 332 331 332 332 331 328 327 328 327 326 324 321 319 317 318 312 309 309 306 296 286 281 277 276 276 276 274 272 272 270 270 266 265
338 336 334 332 331 329 327 326 324 323 325 325 328 329 327 325 325 326 327 325 325 321 319 316 314 312 307 304 302 303 297 291 282 278 277 276 276 275 275 274 270 268 268
328 325 324 323 321 321 321 319 317 318 320 321 320 318 318 324 323 324 325 325 325 324 319 316 314 313 308 308 306 301 298 297 294 290 283 279 278 278 276 273 272 271 268
324 319 316 313 314 316 316 314 314 313 311 311 313 312 313 316 315 317 318 320 322 322 320 315 312 309 310 306 307 305 302 299 299 297 294 289 286 283 277 273 274 273 272
319 319 316 315 315 315 312 306 303 303 302 303 304 303 304 306 308 310 310 311 311 313 315 314 312 310 308 306 304 308 307 306 301 299 298 298 297 293 286 279 274 273 280
321 323 322 324 322 322 323 316 307 308 309 303 298 298 297 296 295 297 299 302 305 308 311 313 313 314 312 308 305 304 305 305 302 298 295 294 292 290 288 282 276 276 276
329 331 328 325 330 330 327 323 323 319 314 313 311 309 309 308 306 306 304 303 301 300 304 307 311 313 313 311 309 307 305 306 303 296 295 292 287 284 280 278 280 278 269
341 337 338 339 337 336 331 325 325 328 323 319 318 319 315 316 313 314 313 312 310 306 306 303 302 304 303 305 307 307 306 306 301 299 299 299 296 292 287 285 284 279 274
348 350 349 350 350 340 339 335 326 320 319 319 318 314 315 313 308 306 305 304 302 303 302 301 303 305 302 300 299 304 304 302 297 299 297 297 298 296 294 292 286 284 281
346 349 352 344 343 349 349 345 345 345 344 343 341 344 334 330 325 319 311 304 302 302 302 305 305 308 305 305 303 298 302 304 299 293 295 295 298 299 298 297 297 290 285
Wind_Speed_850mb
22 35 59 68 71 66 60 57 55 52 50 47 44 45 47 44 44 38 32 31 30 31 30 31 33 31 27 23 25 26 26 25 25 26 27 27 28 28 29 31 28 26 29
22 3 20 38 62 68 65 59 57 57 54 53 47 44 38 40 43 41 40 37 36 35 35 34 34 35 34 31 30 30 29 30 27 25 21 14 25 31 33 36 31 30 34
54 31 11 14 31 51 66 61 54 56 56 55 53 50 47 45 44 47 47 42 39 38 39 39 37 37 39 37 35 34 34 32 30 28 22 11 10 13 33 38 38 33 36
67 53 40 16 19 40 55 64 62 55 54 56 55 54 49 44 38 37 39 40 41 41 41 41 42 42 41 42 40 39 39 38 35 34 33 37 23 8 9 29 39 39 40
72 71 63 54 20 17 34 51 59 60 58 54 51 53 53 47 44 39 37 37 41 43 43 44 45 46 46 45 44 45 45 43 43 42 40 37 43 44 30 23 21 42 43
66 69 69 64 61 18 14 29 41 52 55 57 55 47 44 44 46 45 42 39 38 40 44 44 46 47 49 49 48 48 50 50 49 47 47 47 46 38 43 46 40 35 36
66 68 72 75 70 64 37 5 12 25 40 49 54 58 56 50 47 46 46 45 42 42 41 42 46 48 47 48 50 54 56 57 58 54 54 52 52 52 51 45 43 46 47
61 65 67 68 67 63 58 48 29 9 15 29 39 49 56 62 65 61 54 52 50 46 41 43 46 47 49 51 52 55 60 62 64 64 61 58 57 57 57 57 54 51 51
63 63 60 63 64 61 58 52 43 36 28 22 17 25 38 49 57 60 65 68 62 55 50 49 51 51 52 53 54 59 61 63 67 70 69 68 65 62 61 61 61 58 59
56 60 61 60 58 58 55 47 44 44 39 29 27 27 24 31 37 42 49 55 61 62 58 53 53 53 55 55 57 61 62 64 67 69 73 74 73 70 67 68 66 66 67
49 52 54 56 55 53 52 50 44 39 35 33 33 30 29 28 22 30 40 44 48 49 52 55 57 57 56 56 61 64 67 68 69 71 74 77 76 77 76 74 74 75 74
41 45 50 52 56 54 52 51 46 42 39 33 30 30 31 32 29 27 26 30 37 40 45 49 53 55 55 55 60 65 69 73 76 74 76 78 79 82 83 82 81 81 83
40 45 48 54 57 54 51 51 48 45 41 36 33 32 31 33 36 36 32 30 30 29 34 42 48 50 53 56 55 57 62 69 74 77 80 79 80 82 82 86 87 86 88
39 46 53 57 55 51 52 54 51 48 45 43 40 41 42 40 39 38 36 32 31 31 31 34 39 44 49 52 55 59 60 63 67 71 77 80 84 83 81 83 85 85 91
39 47 54 57 55 55 59 56 52 51 50 48 47 47 47 46 45 45 42 38 35 34 32 34 36 39 42 46 51 55 59 62 64 68 72 74 77 80 80 82 84 83 87
41 49 50 54 58 58 57 53 55 55 52 51 52 50 49 49 50 52 51 48 45 41 38 37 37 36 37 38 43 49 57 61 65 68 70 72 72 74 74 77 79 84 87
40 39 46 49 49 51 53 53 53 54 57 57 56 54 53 55 57 57 57 55 54 51 48 45 42 40 38 38 39 42 50 59 66 69 69 71 72 72 75 74 77 80 85
41 43 47 50 52 52 53 50 51 56 59 59 59 55 56 60 62 62 61 60 59 58 57 54 51 49 44 42 42 44 48 52 58 66 70 72 71 72 72 75 81 86 87
41 45 48 50 52 56 57 57 56 54 58 60 60 57 59 66 63 64 63 64 64 63 62 60 59 58 55 50 48 47 50 51 52 53 59 65 70 69 68 73 81 87 94
46 51 57 59 58 52 52 57 61 63 60 60 62 62 63 65 67 69 67 67 66 67 67 65 61 59 60 54 51 47 50 55 54 51 50 51 56 60 63 70 77 88 90
61 62 60 59 60 61 61 65 65 60 59 62 65 65 64 65 66 67 69 72 75 76 72 71 68 64 61 58 54 50 51 52 56 57 56 51 50 51 52 56 66 80 73
63 61 62 59 55 56 52 51 62 68 70 73 79 81 85 84 82 82 81 80 82 86 82 78 77 73 68 65 61 56 52 52 54 58 59 57 53 51 51 55 62 63 62
55 52 52 58 54 49 49 53 56 60 63 64 67 71 70 70 74 75 78 77 80 82 79 79 81 83 80 81 77 70 66 68 69 67 65 64 64 60 59 59 61 63 68
50 50 49 52 54 53 53 54 55 50 52 55 59 60 65 64 63 65 61 63 63 64 68 69 74 76 74 78 85 91 88 85 79 73 72 76 76 72 69 65 62 63 66
44 44 43 47 45 51 52 52 58 64 64 59 61 62 60 57 60 64 65 63 62 59 64 69 69 73 80 81 87 91 87 81 76 75 77 77 76 74 73 70 64 60 60
41 43 38 42 50 49 52 57 56 53 52 53 55 55 53 54 53 56 64 59 61 66 67 61 58 64 65 65 68 75 75 71 66 64 73 77 74 71 67 65 64 60 56
Wind_Direction_850mb
271 256 250 248 245 243 241 240 239 240 237 237 238 242 248 253 254 254 252 250 249 251 252 245 240 241 241 242 243 244 245 248 253 261 261 256 248 236 224 214 212 215 212
50 308 256 248 247 247 241 240 241 241 242 241 245 249 263 267 267 263 257 255 252 252 253 250 247 248 249 246 245 246 249 252 255 259 268 279 251 239 231 225 223 224 221
43 45 25 280 251 242 239 241 247 245 244 243 244 247 251 258 259 258 256 255 258 258 258 255 251 250 252 250 249 250 252 256 256 254 245 258 256 269 239 236 231 233 229
48 48 44 11 254 242 240 242 246 248 246 244 247 250 258 267 283 288 280 270 266 264 262 259 254 252 253 254 251 252 252 254 253 253 247 243 261 297 281 242 234 238 236
50 49 47 39 3 251 240 245 247 248 248 248 253 255 259 271 278 283 283 276 269 265 263 261 257 254 254 255 255 252 251 254 255 252 253 253 255 256 266 277 257 244 244
51 52 52 49 44 36 235 236 247 248 248 250 253 263 273 282 282 286 290 290 283 273 267 265 263 260 258 257 259 259 256 254 254 253 252 251 251 257 259 263 268 272 258
52 50 49 49 49 49 47 23 254 256 256 257 258 259 264 275 286 290 293 294 292 285 279 275 272 269 268 264 261 259 257 255 255 254 255 255 255 256 257 261 265 266 267
54 51 51 51 52 53 56 55 52 6 279 269 270 271 271 271 270 274 287 292 294 294 289 282 279 276 273 270 266 263 260 257 256 255 254 255 254 255 258 259 261 266 268
53 50 49 49 49 51 53 55 59 60 54 41 359 302 283 277 277 277 277 277 282 291 291 286 282 279 276 272 268 264 261 261 259 258 257 255 255 253 255 256 256 258 263
51 49 47 47 46 46 49 54 55 56 56 51 35 16 332 297 287 284 284 283 281 280 284 284 282 279 275 271 269 268 264 261 258 258 258 257 255 255 253 254 255 255 256
48 43 42 41 38 39 40 40 42 42 43 39 34 27 22 13 335 293 284 283 282 281 278 278 279 279 276 273 269 265 265 263 262 259 258 257 258 257 255 254 254 255 253
45 36 30 26 25 26 27 26 28 28 28 24 19 15 18 18 7 354 340 307 287 282 282 278 277 276 274 275 272 269 264 262 261 261 263 261 260 258 258 257 255 255 257
31 23 18 15 12 13 14 14 12 10 9 8 6 0 357 2 5 3 352 336 326 311 287 279 278 279 276 273 273 276 272 267 263 262 262 262 264 264 262 261 260 258 258
16 4 1 0 2 4 1 359 360 359 356 354 352 350 348 346 347 348 349 347 341 329 314 300 292 283 277 275 274 274 274 273 268 265 264 264 264 265 265 265 264 264 263
4 358 353 350 349 349 349 350 349 348 347 345 342 342 339 335 334 334 335 337 336 331 326 322 309 298 290 284 279 275 275 275 276 274 271 267 265 267 266 267 267 267 267
347 345 343 340 339 340 340 339 339 341 340 336 337 336 333 330 330 330 329 328 326 324 324 322 319 315 310 300 290 286 279 275 276 275 275 274 271 270 268 266 266 267 265
342 342 340 339 338 335 337 334 332 330 332 331 332 332 331 328 327 328 327 326 324 321 319 317 318 312 309 309 306 296 286 281 277 276 276 276 274 272 272 270 270 266 265
338 336 334 332 331 329 327 326 324 323 325 325 328 329 327 325 325 326 327 325 325 321 319 316 314 312 307 304 302 303 297 291 282 278 277 276 276 275 275 274 270 268 268
328 325 324 323 321 321 321 319 317 318 320 321 320 318 318 324 323 324 325 325 325 324 319 316 314 313 308 308 306 301 298 297 294 290 283 279 278 278 276 273 272 271 268
324 319 316 313 314 316 316 314 314 313 311 311 313 312 313 316 315 317 318 320 322 322 320 315 312 309 310 306 307 305 302 299 299 297 294 289 286 283 277 273 274 273 272
319 319 316 315 315 315 312 306 303 303 302 303 304 303 304 306 308 310 310 311 311 313 315 314 312 310 308 306 304 308 307 306 301 299 298 298 297 293 286 279 274 273 280
321 323 322 324 322 322 323 316 307 308 309 303 298 298 297 296 295 297 299 302 305 308 311 313 313 314 312 308 305 304 305 305 302 298 295 294 292 290 288 282 276 276 276
329 331 328 325 330 330 327 323 323 319 314 313 311 309 309 308 306 306 304 303 301 300 304 307 311 313 313 311 309 307 305 306 303 296 295 292 287 284 280 278 280 278 269
341 337 338 339 337 336 331 325 325 328 323 319 318 319 315 316 313 314 313 312 310 306 306 303 302 304 303 305 307 307 306 306 301 299 299 299 296 292 287 285 284 279 274
348 350 349 350 350 340 339 335 326 320 319 319 318 314 315 313 308 306 305 304 302 303 302 301 303 305 302 300 299 304 304 302 297 299 297 297 298 296 294 292 286 284 281
346 349 352 344 343 349 349 345 345 345 344 343 341 344 334 330 325 319 311 304 302 302 302 305 305 308 305 305 303 298 302 304 299 293 295 295 298 299 298 297 297 290 285